EZY897 EGCC-EGJJ

Flight info

Callsign EZY897
Flight time 0h 51m
Altitude 38000
Route ASMIM DCT NOKIN P17 BEPHE DCT OSSEP DCT ELNIF DCT ZESPE DCT DAWLY DCT ABBEW N90 ENHEL N862 SKERY
Aircraft A319/M-SDE3FGHIRWY/LB1

Departure

Time 2026-05-05 18:59
Airport Manchester Airport (EGCC)

Arrival

Time 2026-05-05 19:50
Airport Jersey Airport (EGJJ)
Time Latitude Longitude Altitude Speed Heading
2026-05-05 18:36 53.36031 -2.27500 255 ft 0 kts 97°
2026-05-05 18:47 53.36033 -2.27530 255 ft 4 kts 96°
2026-05-05 18:48 53.36037 -2.27574 255 ft 4 kts 109°
2026-05-05 18:48 53.36049 -2.27611 255 ft 4 kts 154°
2026-05-05 18:48 53.36063 -2.27617 255 ft 1 kts 185°
2026-05-05 18:48 53.36065 -2.27617 255 ft 0 kts 185°
2026-05-05 18:51 53.36064 -2.27617 255 ft 2 kts 185°
2026-05-05 18:51 53.35993 -2.27628 255 ft 17 kts 185°
2026-05-05 18:52 53.35911 -2.27640 255 ft 0 kts 185°
2026-05-05 18:52 53.35890 -2.27643 255 ft 10 kts 185°
2026-05-05 18:52 53.35849 -2.27649 255 ft 9 kts 184°
2026-05-05 18:52 53.35830 -2.27651 255 ft 0 kts 184°
2026-05-05 18:53 53.35824 -2.27652 255 ft 5 kts 184°
2026-05-05 18:53 53.35795 -2.27654 255 ft 3 kts 182°
2026-05-05 18:53 53.35758 -2.27666 252 ft 7 kts 195°
2026-05-05 18:53 53.35726 -2.27692 256 ft 4 kts 214°
2026-05-05 18:54 53.35660 -2.27834 252 ft 27 kts 230°
2026-05-05 18:54 53.35502 -2.27920 247 ft 19 kts 192°
2026-05-05 18:54 53.35393 -2.28030 243 ft 22 kts 224°
2026-05-05 18:54 53.35257 -2.28253 237 ft 32 kts 229°
2026-05-05 18:55 53.35108 -2.28560 227 ft 36 kts 231°
2026-05-05 18:55 53.34960 -2.28841 218 ft 6 kts 226°
2026-05-05 18:55 53.34916 -2.28912 216 ft 16 kts 204°
2026-05-05 18:55 53.34879 -2.28974 216 ft 17 kts 230°
2026-05-05 18:56 53.34839 -2.29054 212 ft 3 kts 230°
2026-05-05 18:56 53.34777 -2.29175 214 ft 25 kts 229°
2026-05-05 18:56 53.34635 -2.29344 206 ft 22 kts 186°
2026-05-05 18:56 53.34543 -2.29232 207 ft 12 kts 72°
2026-05-05 18:57 53.34599 -2.29102 207 ft 5 kts 52°
2026-05-05 18:57 53.34599 -2.29101 207 ft 0 kts 52°
2026-05-05 18:58 53.34608 -2.29081 205 ft 23 kts 52°
2026-05-05 18:58 53.34949 -2.28371 226 ft 127 kts 51°
2026-05-05 18:58 53.35654 -2.26916 301 ft 185 kts 49°
2026-05-05 18:59 53.36367 -2.25418 664 ft 142 kts 51°
2026-05-05 18:59 53.36950 -2.24217 1148 ft 147 kts 51°
2026-05-05 18:59 53.37722 -2.22633 1883 ft 203 kts 50°
2026-05-05 18:59 53.38892 -2.20822 2588 ft 260 kts 30°
2026-05-05 19:00 53.40859 -2.20076 2995 ft 325 kts
2026-05-05 19:00 53.43144 -2.21184 3417 ft 342 kts 331°
2026-05-05 19:00 53.44705 -2.23784 3925 ft 300 kts 300°
2026-05-05 19:00 53.45169 -2.27130 4502 ft 310 kts 270°
2026-05-05 19:01 53.45098 -2.30806 5403 ft 319 kts 268°
2026-05-05 19:01 53.45169 -2.34543 6293 ft 323 kts 279°
2026-05-05 19:01 53.45869 -2.38115 7157 ft 324 kts 296°
2026-05-05 19:01 53.46837 -2.41537 8018 ft 327 kts 288°
2026-05-05 19:02 53.46990 -2.45363 8918 ft 332 kts 266°
2026-05-05 19:02 53.46657 -2.49203 9835 ft 335 kts 261°
2026-05-05 19:02 53.46187 -2.53043 10676 ft 338 kts 259°
2026-05-05 19:02 53.45670 -2.56921 11525 ft 342 kts 259°
2026-05-05 19:03 53.45155 -2.60831 12421 ft 346 kts 258°
2026-05-05 19:03 53.44235 -2.64588 13324 ft 356 kts 237°
2026-05-05 19:03 53.42414 -2.67449 14207 ft 365 kts 216°
2026-05-05 19:03 53.40150 -2.69407 15050 ft 369 kts 205°
2026-05-05 19:04 53.37915 -2.71515 15898 ft 370 kts 220°
2026-05-05 19:04 53.36116 -2.74600 16790 ft 371 kts 229°
2026-05-05 19:04 53.34099 -2.77341 17692 ft 379 kts 211°
2026-05-05 19:04 53.31611 -2.78916 18591 ft 388 kts 196°
2026-05-05 19:05 53.28960 -2.79974 19420 ft 395 kts 195°
2026-05-05 19:05 53.26267 -2.81026 20269 ft 400 kts 195°
2026-05-05 19:05 53.23550 -2.82079 21136 ft 403 kts 195°
2026-05-05 19:05 53.20805 -2.83143 22035 ft 406 kts 195°
2026-05-05 19:06 53.18031 -2.84219 22752 ft 414 kts 195°
2026-05-05 19:06 53.15179 -2.85336 22989 ft 430 kts 195°
2026-05-05 19:06 53.12207 -2.86510 23041 ft 448 kts 195°
2026-05-05 19:06 53.09112 -2.87583 23026 ft 460 kts 189°
2026-05-05 19:07 53.05888 -2.87728 23031 ft 466 kts 178°
2026-05-05 19:07 53.02671 -2.86948 23028 ft 468 kts 172°
2026-05-05 19:07 52.99456 -2.86053 23026 ft 468 kts 172°
2026-05-05 19:07 52.96240 -2.85165 23004 ft 468 kts 172°
2026-05-05 19:08 52.93030 -2.84289 23006 ft 468 kts 172°
2026-05-05 19:08 52.89814 -2.83424 23006 ft 468 kts 172°
2026-05-05 19:08 52.86599 -2.82565 23004 ft 468 kts 172°
2026-05-05 19:08 52.83430 -2.81717 23005 ft 467 kts 172°
2026-05-05 19:09 52.80172 -2.80842 23004 ft 467 kts 172°
2026-05-05 19:09 52.77006 -2.79990 23006 ft 467 kts 172°
2026-05-05 19:09 52.73793 -2.79132 23005 ft 467 kts 172°
2026-05-05 19:09 52.70583 -2.78280 23005 ft 467 kts 172°
2026-05-05 19:10 52.67372 -2.77425 22996 ft 467 kts 172°
2026-05-05 19:10 52.64166 -2.76571 23001 ft 467 kts 172°
2026-05-05 19:10 52.60947 -2.75921 22991 ft 465 kts 179°
2026-05-05 19:10 52.57723 -2.76073 22994 ft 464 kts 185°
2026-05-05 19:11 52.54494 -2.76353 22995 ft 464 kts 185°
2026-05-05 19:11 52.51272 -2.76639 22991 ft 464 kts 185°
2026-05-05 19:11 52.48047 -2.76925 22993 ft 463 kts 185°
2026-05-05 19:11 52.44830 -2.77207 22996 ft 463 kts 185°
2026-05-05 19:12 52.41616 -2.77488 22992 ft 463 kts 185°
2026-05-05 19:12 52.38395 -2.77767 22993 ft 463 kts 185°
2026-05-05 19:12 52.35181 -2.78041 23001 ft 463 kts 185°
2026-05-05 19:12 52.31961 -2.78309 23000 ft 463 kts 185°
2026-05-05 19:13 52.28748 -2.78576 22996 ft 462 kts 185°
2026-05-05 19:13 52.25537 -2.78851 22991 ft 462 kts 185°
2026-05-05 19:13 52.22327 -2.79131 22986 ft 462 kts 185°
2026-05-05 19:13 52.19120 -2.79408 22983 ft 462 kts 185°
2026-05-05 19:14 52.15908 -2.79684 22981 ft 462 kts 185°
2026-05-05 19:14 52.12701 -2.79958 22981 ft 462 kts 185°
2026-05-05 19:14 52.09491 -2.80230 22977 ft 462 kts 185°
2026-05-05 19:14 52.06283 -2.80504 22979 ft 462 kts 185°
2026-05-05 19:15 52.03074 -2.80780 22985 ft 462 kts 185°
2026-05-05 19:15 51.99865 -2.81059 22987 ft 462 kts 185°
2026-05-05 19:15 51.96654 -2.81336 22992 ft 462 kts 185°
2026-05-05 19:15 51.93448 -2.81610 22996 ft 462 kts 185°
2026-05-05 19:16 51.90237 -2.81877 23001 ft 462 kts 184°
2026-05-05 19:16 51.87024 -2.82139 23004 ft 462 kts 185°
2026-05-05 19:16 51.83818 -2.82476 23008 ft 462 kts 186°
2026-05-05 19:16 51.80616 -2.83018 23017 ft 462 kts 188°
2026-05-05 19:17 51.77435 -2.83716 23018 ft 461 kts 190°
2026-05-05 19:17 51.74258 -2.84495 23016 ft 461 kts 190°
2026-05-05 19:17 51.71090 -2.85285 23015 ft 461 kts 190°
2026-05-05 19:17 51.67915 -2.86051 23014 ft 461 kts 190°
2026-05-05 19:18 51.64736 -2.86774 23010 ft 461 kts 189°
2026-05-05 19:18 51.61556 -2.87456 23006 ft 461 kts 189°
2026-05-05 19:18 51.58371 -2.88120 22997 ft 462 kts 189°
2026-05-05 19:18 51.55208 -2.88961 22990 ft 460 kts 195°
2026-05-05 19:19 51.52177 -2.90592 22956 ft 459 kts 202°
2026-05-05 19:19 51.49222 -2.92364 22955 ft 460 kts 202°
2026-05-05 19:19 51.46226 -2.94165 22960 ft 460 kts 202°
2026-05-05 19:19 51.43228 -2.95966 22960 ft 460 kts 202°
2026-05-05 19:20 51.40186 -2.97788 22967 ft 460 kts 202°
2026-05-05 19:20 51.37227 -2.99551 22965 ft 460 kts 202°
2026-05-05 19:20 51.34393 -3.01236 22958 ft 458 kts 202°
2026-05-05 19:20 51.31436 -3.02949 22965 ft 446 kts 201°
2026-05-05 19:21 51.29925 -3.03809 22977 ft 441 kts 201°
2026-05-05 19:21 51.27080 -3.05423 22976 ft 434 kts 201°
2026-05-05 19:21 51.25889 -3.06103 22977 ft 432 kts 201°
2026-05-05 19:22 51.23079 -3.07725 22975 ft 427 kts 201°
2026-05-05 19:22 51.20308 -3.09353 22974 ft 422 kts 202°
2026-05-05 19:22 51.17568 -3.10980 22974 ft 419 kts 202°
2026-05-05 19:22 51.14847 -3.12606 22976 ft 419 kts 202°
2026-05-05 19:23 51.13013 -3.13731 22978 ft 433 kts 203°
2026-05-05 19:23 51.10146 -3.15530 22975 ft 451 kts 203°
2026-05-05 19:23 51.07194 -3.17373 22966 ft 459 kts 203°
2026-05-05 19:23 51.04208 -3.19192 22966 ft 461 kts 202°
2026-05-05 19:24 51.01197 -3.20984 22959 ft 462 kts 202°
2026-05-05 19:24 50.98185 -3.22747 22965 ft 462 kts 202°
2026-05-05 19:24 50.95167 -3.24499 22959 ft 462 kts 201°
2026-05-05 19:24 50.92146 -3.26249 22957 ft 462 kts 202°
2026-05-05 19:25 50.89122 -3.28003 22963 ft 463 kts 202°
2026-05-05 19:25 50.86106 -3.29757 22954 ft 463 kts 202°
2026-05-05 19:25 50.83088 -3.31518 22957 ft 463 kts 202°
2026-05-05 19:25 50.80067 -3.33286 22955 ft 462 kts 202°
2026-05-05 19:26 50.77077 -3.35033 22728 ft 453 kts 202°
2026-05-05 19:26 50.74147 -3.36737 22584 ft 448 kts 202°
2026-05-05 19:26 50.71225 -3.38431 22526 ft 446 kts 201°
2026-05-05 19:26 50.68303 -3.40119 21848 ft 445 kts 201°
2026-05-05 19:27 50.65409 -3.41788 21185 ft 442 kts 201°
2026-05-05 19:27 50.62532 -3.43447 20568 ft 439 kts 201°
2026-05-05 19:27 50.59669 -3.45100 19965 ft 437 kts 201°
2026-05-05 19:27 50.56759 -3.46438 19372 ft 436 kts 192°
2026-05-05 19:28 50.53740 -3.46950 18788 ft 436 kts 182°
2026-05-05 19:28 50.50765 -3.46611 18227 ft 435 kts 171°
2026-05-05 19:28 50.47820 -3.45373 17553 ft 431 kts 159°
2026-05-05 19:28 50.45119 -3.43375 16913 ft 427 kts 152°
2026-05-05 19:29 50.42523 -3.41273 16308 ft 424 kts 152°
2026-05-05 19:29 50.39914 -3.39159 15996 ft 421 kts 152°
2026-05-05 19:29 50.37315 -3.37050 15936 ft 420 kts 152°
2026-05-05 19:29 50.34712 -3.34941 15954 ft 421 kts 152°
2026-05-05 19:30 50.32112 -3.32840 15948 ft 421 kts 152°
2026-05-05 19:30 50.29511 -3.30746 15948 ft 421 kts 152°
2026-05-05 19:30 50.26906 -3.28654 15950 ft 421 kts 152°
2026-05-05 19:30 50.24297 -3.26591 15948 ft 421 kts 154°
2026-05-05 19:31 50.21536 -3.25060 15944 ft 421 kts 165°
2026-05-05 19:31 50.18685 -3.24029 15944 ft 421 kts 167°
2026-05-05 19:31 50.15824 -3.23002 15943 ft 421 kts 167°
2026-05-05 19:31 50.12970 -3.21976 15949 ft 421 kts 166°
2026-05-05 19:32 50.10114 -3.20949 15948 ft 421 kts 166°
2026-05-05 19:32 50.07257 -3.19920 15834 ft 421 kts 166°
2026-05-05 19:32 50.04412 -3.18900 15235 ft 418 kts 166°
2026-05-05 19:32 50.01594 -3.17867 14620 ft 414 kts 164°
2026-05-05 19:33 49.99006 -3.16024 14014 ft 409 kts 147°
2026-05-05 19:33 49.96730 -3.13409 13379 ft 405 kts 139°
2026-05-05 19:33 49.94674 -3.10447 12721 ft 401 kts 134°
2026-05-05 19:33 49.92749 -3.07333 12133 ft 398 kts 131°
2026-05-05 19:34 49.90864 -3.04198 11930 ft 397 kts 131°
2026-05-05 19:34 49.88957 -3.01105 11934 ft 397 kts 133°
2026-05-05 19:34 49.87005 -2.98064 11737 ft 397 kts 134°
2026-05-05 19:35 49.83031 -2.92178 10874 ft 393 kts 135°
2026-05-05 19:35 49.81036 -2.89299 10465 ft 391 kts 136°
2026-05-05 19:35 49.79050 -2.86440 10054 ft 389 kts 135°
2026-05-05 19:35 49.77079 -2.83593 9617 ft 387 kts 135°
2026-05-05 19:36 49.75118 -2.80750 9169 ft 385 kts 135°
2026-05-05 19:36 49.73178 -2.77934 8913 ft 375 kts 135°
2026-05-05 19:36 49.71361 -2.75297 8939 ft 343 kts 135°
2026-05-05 19:36 49.69693 -2.72874 8940 ft 316 kts 135°
2026-05-05 19:37 49.68126 -2.70595 8947 ft 310 kts 135°
2026-05-05 19:37 49.66569 -2.68323 8945 ft 312 kts 135°
2026-05-05 19:37 49.64979 -2.66003 8947 ft 317 kts 135°
2026-05-05 19:37 49.63361 -2.63648 8948 ft 322 kts 135°
2026-05-05 19:38 49.61723 -2.61272 8957 ft 325 kts 135°
2026-05-05 19:38 49.60065 -2.58876 8948 ft 328 kts 135°
2026-05-05 19:38 49.58391 -2.56462 8950 ft 330 kts 135°
2026-05-05 19:38 49.56693 -2.54011 8668 ft 339 kts 135°
2026-05-05 19:39 49.54957 -2.51508 8282 ft 342 kts 135°
2026-05-05 19:39 49.53222 -2.49013 7898 ft 341 kts 135°
2026-05-05 19:39 49.51490 -2.46526 7521 ft 339 kts 135°
2026-05-05 19:39 49.49775 -2.44064 7143 ft 336 kts 135°
2026-05-05 19:40 49.48073 -2.41619 6941 ft 334 kts 135°
2026-05-05 19:40 49.46381 -2.39188 6946 ft 332 kts 135°
2026-05-05 19:40 49.44751 -2.36852 6948 ft 307 kts 135°
2026-05-05 19:40 49.43222 -2.34666 6946 ft 296 kts 135°
2026-05-05 19:41 49.41722 -2.32518 6946 ft 294 kts 135°
2026-05-05 19:41 49.40227 -2.30376 6946 ft 294 kts 135°
2026-05-05 19:41 49.38731 -2.28238 6925 ft 294 kts 135°
2026-05-05 19:41 49.37236 -2.26108 6926 ft 293 kts 135°
2026-05-05 19:42 49.35754 -2.23997 6889 ft 283 kts 135°
2026-05-05 19:42 49.34340 -2.21988 6556 ft 273 kts 134°
2026-05-05 19:42 49.32963 -2.20029 6176 ft 268 kts 134°
2026-05-05 19:42 49.31599 -2.18089 5783 ft 265 kts 134°
2026-05-05 19:43 49.30253 -2.16170 5397 ft 264 kts 133°
2026-05-05 19:43 49.28912 -2.14262 5020 ft 262 kts 133°
2026-05-05 19:43 49.27576 -2.12366 4906 ft 264 kts 133°
2026-05-05 19:43 49.26223 -2.10443 4594 ft 265 kts 133°
2026-05-05 19:44 49.24872 -2.08525 4094 ft 263 kts 133°
2026-05-05 19:44 49.23536 -2.06620 3609 ft 261 kts 131°
2026-05-05 19:44 49.22559 -2.04358 3122 ft 252 kts 106°
2026-05-05 19:44 49.22309 -2.01769 2566 ft 245 kts 83°
2026-05-05 19:45 49.22494 -1.99240 2230 ft 237 kts 80°
2026-05-05 19:45 49.22682 -1.96699 2235 ft 243 kts 80°
2026-05-05 19:45 49.22869 -1.94134 2233 ft 243 kts 80°
2026-05-05 19:45 49.23093 -1.91569 2231 ft 242 kts 73°
2026-05-05 19:46 49.23980 -1.89484 2225 ft 236 kts 35°
2026-05-05 19:46 49.25517 -1.88786 2227 ft 236 kts 357°
2026-05-05 19:46 49.27002 -1.89798 2222 ft 242 kts 318°
2026-05-05 19:46 49.27755 -1.92103 2226 ft 252 kts 279°
2026-05-05 19:47 49.27415 -1.94733 2223 ft 259 kts 244°
2026-05-05 19:47 49.26376 -1.97000 2218 ft 262 kts 230°
2026-05-05 19:47 49.25123 -1.99035 2219 ft 263 kts 226°
2026-05-05 19:47 49.23828 -2.01006 2200 ft 263 kts 226°
2026-05-05 19:48 49.22577 -2.03039 1991 ft 259 kts 235°
2026-05-05 19:48 49.21973 -2.05420 1789 ft 227 kts 262°
2026-05-05 19:48 49.21783 -2.07664 1506 ft 199 kts 266°
2026-05-05 19:48 49.21615 -2.09630 1379 ft 174 kts 266°
2026-05-05 19:49 49.21463 -2.11354 1278 ft 158 kts 266°
2026-05-05 19:49 49.21368 -2.12438 1123 ft 153 kts 267°
2026-05-05 19:49 49.21192 -2.14700 789 ft 170 kts 267°
2026-05-05 19:49 49.21048 -2.16535 561 ft 173 kts 264°
2026-05-05 19:50 49.20903 -2.18262 336 ft 149 kts 266°
2026-05-05 19:50 49.20797 -2.19588 282 ft 83 kts 263°
2026-05-05 19:50 49.20762 -2.19998 284 ft 28 kts 255°
2026-05-05 19:50 49.20632 -2.20080 281 ft 0 kts 176°
2026-05-05 19:51 49.20609 -2.20085 281 ft 7 kts 187°
2026-05-05 19:51 49.20550 -2.20073 281 ft 10 kts 150°
2026-05-05 19:51 49.20519 -2.19997 286 ft 0 kts 112°
2026-05-05 19:51 49.20519 -2.19996 286 ft 1 kts 111°
2026-05-05 19:52 49.20501 -2.19943 281 ft 9 kts 138°
2026-05-05 19:52 49.20438 -2.19876 281 ft 9 kts 102°
2026-05-05 19:52 49.20452 -2.19785 283 ft 9 kts 25°
2026-05-05 19:52 49.20472 -2.19785 281 ft 0 kts 349°
2026-05-05 19:58 49.20558 -2.19702 284 ft 0 kts 177°